SNR020 YBAS-NFFN

Flight info

Callsign SNR020
Flight time N/A
Altitude 39000
Route PULOL T11 ROM G326 WOODY Y79 BN B578 TEBUR B602 ATPEN B599 AGUTA
Aircraft A359/H-SDE3GHIJ2J3J5M1RVWXY/LB2D1

Departure

Time 2026-04-24 12:24
Airport Alice Springs Airport (YBAS)

Arrival

Time N/A
Airport Nadi International Airport (NFFN)
Time Latitude Longitude Altitude Speed Heading
2026-04-24 12:01 -23.80284 133.90113 1789 ft 0 kts 74°
2026-04-24 12:17 -23.80289 133.90092 1768 ft 4 kts 59°
2026-04-24 12:17 -23.80308 133.90073 1787 ft 4 kts 25°
2026-04-24 12:17 -23.80326 133.90065 1786 ft 0 kts 22°
2026-04-24 12:21 -23.80324 133.90065 1786 ft 1 kts 14°
2026-04-24 12:21 -23.80317 133.90062 1788 ft 3 kts 348°
2026-04-24 12:21 -23.80282 133.90028 1787 ft 11 kts 311°
2026-04-24 12:21 -23.80227 133.89928 1788 ft 20 kts 303°
2026-04-24 12:22 -23.80147 133.89777 1787 ft 27 kts 300°
2026-04-24 12:22 -23.80041 133.89579 1789 ft 34 kts 300°
2026-04-24 12:22 -23.79984 133.89453 1789 ft 10 kts 285°
2026-04-24 12:22 -23.80004 133.89364 1790 ft 16 kts 240°
2026-04-24 12:23 -23.80057 133.89289 1788 ft 3 kts 188°
2026-04-24 12:23 -23.80086 133.89303 1790 ft 7 kts 152°
2026-04-24 12:23 -23.80105 133.89340 1788 ft 11 kts 117°
2026-04-24 12:23 -23.80263 133.89635 1788 ft 84 kts 120°
2026-04-24 12:24 -23.80681 133.90412 1785 ft 151 kts 120°
2026-04-24 12:24 -23.81276 133.91471 2296 ft 169 kts 122°
2026-04-24 12:24 -23.81925 133.92559 3152 ft 168 kts 121°
2026-04-24 12:24 -23.82556 133.93578 3811 ft 163 kts 121°
2026-04-24 12:25 -23.83141 133.94693 4092 ft 178 kts 114°
2026-04-24 12:25 -23.83593 133.96020 4314 ft 194 kts 105°
2026-04-24 12:25 -23.83995 133.97491 4582 ft 212 kts 103°
2026-04-24 12:25 -23.84397 133.99096 4869 ft 230 kts 103°
2026-04-24 12:26 -23.84814 134.00870 5232 ft 245 kts 102°
2026-04-24 12:26 -23.85233 134.02697 5761 ft 251 kts 102°
2026-04-24 12:26 -23.85659 134.04570 6344 ft 256 kts 102°
2026-04-24 12:26 -23.86091 134.06465 6921 ft 260 kts 102°
2026-04-24 12:27 -23.86527 134.08375 7457 ft 265 kts 102°
2026-04-24 12:27 -23.86978 134.10345 8012 ft 269 kts 103°
2026-04-24 12:27 -23.87435 134.12336 8607 ft 272 kts 103°
2026-04-24 12:27 -23.87898 134.14356 9213 ft 276 kts 103°
2026-04-24 12:28 -23.88367 134.16399 9801 ft 279 kts 103°
2026-04-24 12:28 -23.88846 134.18487 10288 ft 287 kts 103°
2026-04-24 12:28 -23.89342 134.20654 10551 ft 301 kts 103°
2026-04-24 12:28 -23.89861 134.22924 10823 ft 314 kts 103°
2026-04-24 12:29 -23.90398 134.25274 11112 ft 324 kts 103°
2026-04-24 12:29 -23.90950 134.27690 11520 ft 330 kts 103°
2026-04-24 12:29 -23.91509 134.30135 11956 ft 335 kts 103°
2026-04-24 12:29 -23.92077 134.32624 12408 ft 339 kts 104°
2026-04-24 12:30 -23.92651 134.35138 12846 ft 343 kts 104°
2026-04-24 12:30 -23.93229 134.37675 13309 ft 346 kts 104°
2026-04-24 12:30 -23.93814 134.40244 13780 ft 348 kts 104°
2026-04-24 12:30 -23.94399 134.42818 14198 ft 351 kts 104°
2026-04-24 12:31 -23.94992 134.45429 14583 ft 355 kts 104°
2026-04-24 12:31 -23.95589 134.48056 14958 ft 359 kts 104°
2026-04-24 12:31 -23.95785 134.48922 15068 ft 360 kts 104°
2026-04-24 12:31 -23.96810 134.53442 15707 ft 365 kts 104°
2026-04-24 12:32 -23.97431 134.56187 16082 ft 369 kts 104°
2026-04-24 12:32 -23.98042 134.58887 16454 ft 372 kts 105°
2026-04-24 12:32 -23.98674 134.61683 16824 ft 376 kts 105°
2026-04-24 12:32 -23.99292 134.64423 17215 ft 378 kts 105°
2026-04-24 12:33 -23.99922 134.67218 17582 ft 381 kts 105°
2026-04-24 12:33 -24.00561 134.70049 17934 ft 385 kts 105°
2026-04-24 12:33 -24.01204 134.72903 18304 ft 388 kts 105°
2026-04-24 12:33 -24.01851 134.75779 18647 ft 391 kts 105°
2026-04-24 12:34 -24.02500 134.78664 18958 ft 393 kts 105°
2026-04-24 12:34 -24.03156 134.81586 19275 ft 396 kts 105°
2026-04-24 12:34 -24.03816 134.84528 19594 ft 399 kts 105°
2026-04-24 12:34 -24.04477 134.87476 19908 ft 401 kts 105°
2026-04-24 12:35 -24.05143 134.90453 20225 ft 404 kts 105°
2026-04-24 12:35 -24.05814 134.93450 20522 ft 407 kts 105°
2026-04-24 12:35 -24.06488 134.96470 20849 ft 409 kts 105°
2026-04-24 12:35 -24.07166 134.99507 21170 ft 412 kts 105°
2026-04-24 12:36 -24.07846 135.02559 21505 ft 414 kts 106°
2026-04-24 12:36 -24.08530 135.05630 21821 ft 416 kts 106°
2026-04-24 12:36 -24.09215 135.08706 22126 ft 419 kts 106°
2026-04-24 12:36 -24.09906 135.11814 22433 ft 421 kts 106°
2026-04-24 12:37 -24.10601 135.14937 22746 ft 424 kts 106°
2026-04-24 12:37 -24.11300 135.18089 23046 ft 426 kts 106°
2026-04-24 12:37 -24.12000 135.21245 23341 ft 429 kts 106°
2026-04-24 12:37 -24.12705 135.24431 23639 ft 431 kts 106°
2026-04-24 12:38 -24.13181 135.26579 23839 ft 433 kts 106°
2026-04-24 12:38 -24.13883 135.29756 24068 ft 435 kts 106°
2026-04-24 12:38 -24.14597 135.32990 24289 ft 438 kts 106°
2026-04-24 12:39 -24.16759 135.42801 24983 ft 446 kts 107°
2026-04-24 12:39 -24.17489 135.46121 25213 ft 449 kts 107°
2026-04-24 12:39 -24.18223 135.49463 25447 ft 451 kts 107°
2026-04-24 12:40 -24.18955 135.52804 25665 ft 454 kts 107°
2026-04-24 12:40 -24.19694 135.56177 25890 ft 456 kts 107°
2026-04-24 12:40 -24.20434 135.59557 26131 ft 459 kts 107°
2026-04-24 12:40 -24.21181 135.62972 26375 ft 461 kts 107°
2026-04-24 12:41 -24.21929 135.66395 26581 ft 464 kts 107°
2026-04-24 12:41 -24.22680 135.69839 26821 ft 466 kts 107°
2026-04-24 12:41 -24.23435 135.73302 27071 ft 469 kts 107°
2026-04-24 12:41 -24.24192 135.76778 27305 ft 471 kts 107°
2026-04-24 12:42 -24.24953 135.80281 27553 ft 474 kts 107°
2026-04-24 12:42 -24.25719 135.83811 27802 ft 477 kts 108°
2026-04-24 12:42 -24.26488 135.87355 28045 ft 479 kts 108°
2026-04-24 12:42 -24.27250 135.90873 28286 ft 482 kts 108°
2026-04-24 12:43 -24.28037 135.94508 28551 ft 485 kts 108°
2026-04-24 12:43 -24.28805 135.98060 28802 ft 488 kts 108°
2026-04-24 12:43 -24.29589 136.01693 29042 ft 491 kts 108°
2026-04-24 12:43 -24.30378 136.05354 29295 ft 494 kts 108°
2026-04-24 12:44 -24.31170 136.09031 29563 ft 497 kts 108°
2026-04-24 12:44 -24.31963 136.12719 29811 ft 500 kts 108°
2026-04-24 12:44 -24.32764 136.16447 30060 ft 503 kts 108°
2026-04-24 12:44 -24.33565 136.20182 30330 ft 506 kts 108°
2026-04-24 12:45 -24.34369 136.23936 30591 ft 508 kts 108°
2026-04-24 12:45 -24.35177 136.27714 30822 ft 510 kts 108°
2026-04-24 12:45 -24.35990 136.31519 31092 ft 513 kts 108°
2026-04-24 12:45 -24.36804 136.35337 31349 ft 515 kts 108°
2026-04-24 12:46 -24.37621 136.39171 31607 ft 518 kts 109°
2026-04-24 12:46 -24.38440 136.43022 31835 ft 520 kts 109°
2026-04-24 12:46 -24.39264 136.46896 32068 ft 522 kts 109°
2026-04-24 12:46 -24.40090 136.50786 32318 ft 525 kts 109°
2026-04-24 12:47 -24.40920 136.54700 32562 ft 527 kts 109°
2026-04-24 12:47 -24.41750 136.58625 32802 ft 530 kts 109°
2026-04-24 12:47 -24.42583 136.62566 33041 ft 532 kts 109°
2026-04-24 12:47 -24.43419 136.66525 33272 ft 534 kts 109°
2026-04-24 12:48 -24.44260 136.70515 33506 ft 537 kts 109°
2026-04-24 12:48 -24.45103 136.74517 33739 ft 539 kts 109°
2026-04-24 12:48 -24.45948 136.78529 33975 ft 541 kts 109°
2026-04-24 12:48 -24.46813 136.82555 34194 ft 543 kts 109°
2026-04-24 12:49 -24.47694 136.86586 34408 ft 545 kts 110°
2026-04-24 12:49 -24.48584 136.90647 34615 ft 547 kts 110°
2026-04-24 12:49 -24.49473 136.94710 34836 ft 548 kts 109°
2026-04-24 12:49 -24.50360 136.98785 35134 ft 548 kts 110°
2026-04-24 12:50 -24.51239 137.02843 35412 ft 548 kts 110°
2026-04-24 12:50 -24.52118 137.06910 35706 ft 547 kts 110°
2026-04-24 12:50 -24.52995 137.10976 35999 ft 547 kts 110°
2026-04-24 12:50 -24.53871 137.15047 36300 ft 547 kts 110°
2026-04-24 12:51 -24.54732 137.19053 36597 ft 546 kts 110°
2026-04-24 12:51 -24.55604 137.23114 36888 ft 546 kts 110°
2026-04-24 12:51 -24.56473 137.27165 37180 ft 545 kts 110°
2026-04-24 12:51 -24.57342 137.31218 37499 ft 545 kts 110°
2026-04-24 12:52 -24.58206 137.35258 37797 ft 544 kts 110°
2026-04-24 12:52 -24.59071 137.39309 38095 ft 544 kts 110°
2026-04-24 12:52 -24.59937 137.43368 38369 ft 544 kts 110°
2026-04-24 12:52 -24.60797 137.47404 38654 ft 544 kts 110°
2026-04-24 12:53 -24.61659 137.51454 38936 ft 543 kts 110°
2026-04-24 12:53 -24.62514 137.55479 39178 ft 542 kts 110°
2026-04-24 12:53 -24.63371 137.59518 39437 ft 541 kts 110°
2026-04-24 12:53 -24.64220 137.63534 39696 ft 540 kts 110°
2026-04-24 12:54 -24.65069 137.67549 39949 ft 538 kts 110°
2026-04-24 12:54 -24.65910 137.71550 40188 ft 537 kts 110°
2026-04-24 12:54 -24.66755 137.75561 40425 ft 536 kts 110°
2026-04-24 12:54 -24.67595 137.79547 40649 ft 535 kts 110°
2026-04-24 12:55 -24.68436 137.83536 40901 ft 534 kts 110°
2026-04-24 12:55 -24.69268 137.87494 41091 ft 532 kts 110°
2026-04-24 12:55 -24.70104 137.91474 41219 ft 534 kts 110°
2026-04-24 12:56 -24.71788 137.99483 41224 ft 540 kts 110°
2026-04-24 12:56 -24.73466 138.07527 41223 ft 540 kts 110°
2026-04-24 12:57 -24.75139 138.15581 41225 ft 539 kts 110°
2026-04-24 12:57 -24.76804 138.23611 41233 ft 539 kts 110°
2026-04-24 12:58 -24.78469 138.31657 41222 ft 539 kts 110°
2026-04-24 12:58 -24.80130 138.39704 41225 ft 539 kts 110°
2026-04-24 12:59 -24.81787 138.47758 41227 ft 539 kts 110°
2026-04-24 12:59 -24.83435 138.55794 41225 ft 539 kts 110°
2026-04-24 13:00 -24.85080 138.63838 41221 ft 539 kts 110°
2026-04-24 13:00 -24.86723 138.71893 41229 ft 538 kts 110°
2026-04-24 13:01 -24.88358 138.79929 41227 ft 538 kts 110°
2026-04-24 13:01 -24.89987 138.87964 41237 ft 538 kts 110°
2026-04-24 13:02 -24.91611 138.95994 41224 ft 537 kts 110°
2026-04-24 13:02 -24.93223 139.03986 41225 ft 537 kts 110°
2026-04-24 13:03 -24.94838 139.12019 41233 ft 537 kts 110°
2026-04-24 13:03 -24.96448 139.20051 41228 ft 537 kts 110°
2026-04-24 13:04 -24.98054 139.28086 41230 ft 537 kts 110°
2026-04-24 13:04 -24.99655 139.36123 41230 ft 537 kts 110°
2026-04-24 13:05 -25.01254 139.44172 41233 ft 537 kts 110°
2026-04-24 13:05 -25.02848 139.52216 41233 ft 537 kts 110°
2026-04-24 13:06 -25.04436 139.60258 41232 ft 537 kts 110°
2026-04-24 13:06 -25.06018 139.68296 41233 ft 536 kts 110°
2026-04-24 13:07 -25.07598 139.76344 41245 ft 536 kts 110°
2026-04-24 13:07 -25.09169 139.84371 41247 ft 536 kts 110°
2026-04-24 13:08 -25.10739 139.92414 41246 ft 536 kts 110°
2026-04-24 13:08 -25.12300 140.00437 41238 ft 536 kts 110°
2026-04-24 13:09 -25.14636 140.12491 41236 ft 535 kts 110°
2026-04-24 13:09 -25.16189 140.20536 41258 ft 535 kts 111°
2026-04-24 13:10 -25.17733 140.28556 41237 ft 535 kts 111°
2026-04-24 13:10 -25.19272 140.36579 41239 ft 534 kts 111°
2026-04-24 13:11 -25.20810 140.44612 41249 ft 535 kts 111°
2026-04-24 13:11 -25.22344 140.52654 41241 ft 534 kts 111°
2026-04-24 13:12 -25.23861 140.60631 41244 ft 535 kts 111°
2026-04-24 13:12 -25.25383 140.68662 41252 ft 535 kts 111°
2026-04-24 13:13 -25.26904 140.76711 41243 ft 535 kts 111°
2026-04-24 13:13 -25.28419 140.84751 41245 ft 535 kts 111°
2026-04-24 13:14 -25.29930 140.92802 41247 ft 535 kts 111°
2026-04-24 13:14 -25.31436 141.00844 41248 ft 535 kts 111°
2026-04-24 13:15 -25.32936 141.08882 41246 ft 535 kts 111°
2026-04-24 13:15 -25.34435 141.16942 41255 ft 535 kts 111°
2026-04-24 13:16 -25.35926 141.24987 41253 ft 535 kts 111°
2026-04-24 13:16 -25.37413 141.33041 41251 ft 535 kts 111°
2026-04-24 13:17 -25.38899 141.41113 41253 ft 535 kts 111°
2026-04-24 13:17 -25.40381 141.49186 41253 ft 535 kts 111°
2026-04-24 13:18 -25.41856 141.57249 41237 ft 535 kts 111°
2026-04-24 13:18 -25.43326 141.65309 41258 ft 535 kts 111°
2026-04-24 13:19 -25.44792 141.73377 41257 ft 535 kts 111°
2026-04-24 13:19 -25.46247 141.81408 41282 ft 535 kts 111°
2026-04-24 13:20 -25.47714 141.89529 41258 ft 536 kts 111°
2026-04-24 13:20 -25.49161 141.97568 41258 ft 536 kts 111°
2026-04-24 13:21 -25.50610 142.05647 41278 ft 536 kts 111°
2026-04-24 13:21 -25.52057 142.13740 41262 ft 536 kts 111°
2026-04-24 13:22 -25.53502 142.21843 41262 ft 537 kts 111°
2026-04-24 13:22 -25.54943 142.29957 41277 ft 537 kts 111°
2026-04-24 13:23 -25.56382 142.38083 41265 ft 537 kts 111°
2026-04-24 13:23 -25.57814 142.46198 41265 ft 538 kts 111°
2026-04-24 13:24 -25.59244 142.54335 41283 ft 538 kts 111°
2026-04-24 13:24 -25.60669 142.62470 41266 ft 538 kts 111°
2026-04-24 13:25 -25.62090 142.70606 41262 ft 538 kts 111°
2026-04-24 13:25 -25.63267 142.77367 41284 ft 538 kts 111°
2026-04-24 13:26 -25.64679 142.85510 41265 ft 537 kts 111°
2026-04-24 13:26 -25.66083 142.93631 41266 ft 537 kts 111°
2026-04-24 13:27 -25.67484 143.01751 41280 ft 537 kts 111°
2026-04-24 13:27 -25.68879 143.09879 41268 ft 536 kts 111°
2026-04-24 13:28 -25.70267 143.17989 41268 ft 536 kts 111°
2026-04-24 13:28 -25.71652 143.26102 41300 ft 535 kts 111°
2026-04-24 13:29 -25.73031 143.34213 41270 ft 535 kts 111°
2026-04-24 13:29 -25.74403 143.42305 41276 ft 534 kts 111°
2026-04-24 13:30 -25.75773 143.50413 41301 ft 534 kts 111°
2026-04-24 13:30 -25.77135 143.58516 41277 ft 534 kts 110°
2026-04-24 13:31 -25.78490 143.66604 41277 ft 534 kts 111°
2026-04-24 13:31 -25.79845 143.74711 41289 ft 534 kts 111°
2026-04-24 13:32 -25.81192 143.82797 41279 ft 533 kts 110°
2026-04-24 13:32 -25.82531 143.90882 41279 ft 532 kts 110°
2026-04-24 13:33 -25.83866 143.98963 41283 ft 532 kts 110°
2026-04-24 13:33 -25.85190 144.06998 41282 ft 532 kts 110°
2026-04-24 13:34 -25.86524 144.15128 41287 ft 533 kts 110°
2026-04-24 13:34 -25.87841 144.23181 41285 ft 533 kts 110°
2026-04-24 13:35 -25.89159 144.31271 41287 ft 532 kts 109°
2026-04-24 13:35 -25.90468 144.39352 41291 ft 531 kts 109°
2026-04-24 13:36 -25.91770 144.47430 41292 ft 531 kts 109°
2026-04-24 13:36 -25.93066 144.55508 41295 ft 530 kts 109°
2026-04-24 13:37 -25.94352 144.63553 41295 ft 529 kts 109°
2026-04-24 13:37 -25.95636 144.71601 41296 ft 529 kts 109°
2026-04-24 13:38 -25.96914 144.79636 41305 ft 528 kts 108°
2026-04-24 13:38 -25.98181 144.87652 41300 ft 526 kts 108°
2026-04-24 13:39 -25.99445 144.95665 41304 ft 526 kts 108°
2026-04-24 13:39 -26.00708 145.03695 41317 ft 526 kts 108°
2026-04-24 13:40 -26.01957 145.11682 41305 ft 525 kts 108°
2026-04-24 13:40 -26.03204 145.19682 41307 ft 524 kts 108°
2026-04-24 13:41 -26.04445 145.27667 41330 ft 524 kts 107°
2026-04-24 13:41 -26.05678 145.35640 41306 ft 523 kts 107°
2026-04-24 13:42 -26.06908 145.43616 41310 ft 523 kts 107°
2026-04-24 13:42 -26.08123 145.51524 41309 ft 523 kts 107°
2026-04-24 13:43 -26.09341 145.59484 41311 ft 522 kts 107°
2026-04-24 13:43 -26.10555 145.67445 41312 ft 522 kts 107°
2026-04-24 13:44 -26.11764 145.75407 41311 ft 522 kts 107°
2026-04-24 13:44 -26.12969 145.83375 41319 ft 521 kts 107°
2026-04-24 13:45 -26.14164 145.91311 41315 ft 520 kts 107°
2026-04-24 13:45 -26.15355 145.99244 41314 ft 520 kts 107°
2026-04-24 13:46 -26.16543 146.07182 41311 ft 520 kts 107°
2026-04-24 13:46 -26.17723 146.15111 41312 ft 518 kts 107°
2026-04-24 13:47 -26.18898 146.23029 41315 ft 518 kts 107°
2026-04-24 13:47 -26.20068 146.30939 41319 ft 518 kts 107°
2026-04-24 13:48 -26.21234 146.38864 41321 ft 517 kts 106°
2026-04-24 13:48 -26.22391 146.46755 41319 ft 517 kts 106°
2026-04-24 13:49 -26.23544 146.54648 41319 ft 517 kts 106°
2026-04-24 13:49 -26.24695 146.62551 41317 ft 517 kts 106°
2026-04-24 13:50 -26.25833 146.70405 41319 ft 517 kts 106°
2026-04-24 13:50 -26.26973 146.78303 41327 ft 517 kts 106°
2026-04-24 13:51 -26.28110 146.86212 41339 ft 517 kts 106°
2026-04-24 13:51 -26.29241 146.94109 41328 ft 516 kts 106°
2026-04-24 13:52 -26.30366 147.02002 41324 ft 516 kts 106°
2026-04-24 13:52 -26.31487 147.09892 41328 ft 516 kts 105°
2026-04-24 13:53 -26.32606 147.17799 41338 ft 515 kts 105°
2026-04-24 13:53 -26.33714 147.25671 41336 ft 514 kts 105°
2026-04-24 13:54 -26.34819 147.33543 41336 ft 514 kts 105°
2026-04-24 13:54 -26.35922 147.41428 41334 ft 514 kts 105°
2026-04-24 13:55 -26.37016 147.49294 41329 ft 512 kts 105°
2026-04-24 13:55 -26.38104 147.57145 41331 ft 512 kts 105°
2026-04-24 13:56 -26.39183 147.64954 41330 ft 512 kts 105°
2026-04-24 13:56 -26.40262 147.72805 41330 ft 512 kts 104°
2026-04-24 13:57 -26.41335 147.80648 41330 ft 511 kts 104°
2026-04-24 13:57 -26.42406 147.88500 41333 ft 511 kts 104°
2026-04-24 13:58 -26.43472 147.96343 41337 ft 512 kts 104°
2026-04-24 13:58 -26.44536 148.04210 41332 ft 513 kts 104°
2026-04-24 13:59 -26.45594 148.12080 41333 ft 513 kts 104°
2026-04-24 13:59 -26.46647 148.19936 41333 ft 513 kts 104°
2026-04-24 14:00 -26.47700 148.27823 41340 ft 512 kts 104°
2026-04-24 14:00 -26.48745 148.35692 41335 ft 512 kts 104°
2026-04-24 14:01 -26.49786 148.43558 41334 ft 512 kts 104°
2026-04-24 14:01 -26.50823 148.51425 41339 ft 512 kts 104°
2026-04-24 14:02 -26.51856 148.59304 41332 ft 513 kts 104°
2026-04-24 14:02 -26.52885 148.67181 41333 ft 513 kts 104°
2026-04-24 14:03 -26.53909 148.75060 41333 ft 513 kts 103°
2026-04-24 14:03 -26.55042 148.82916 41334 ft 510 kts 108°
2026-04-24 14:04 -26.56688 148.90612 41332 ft 508 kts 110°
2026-04-24 14:04 -26.58390 148.98266 41333 ft 509 kts 109°
2026-04-24 14:05 -26.60011 149.05963 41346 ft 509 kts 108°
2026-04-24 14:05 -26.61581 149.13675 41333 ft 508 kts 108°
2026-04-24 14:06 -26.63137 149.21379 41333 ft 508 kts 108°
2026-04-24 14:06 -26.64690 149.29070 41335 ft 508 kts 108°
2026-04-24 14:07 -26.66242 149.36771 41334 ft 508 kts 108°
2026-04-24 14:07 -26.67782 149.44433 41334 ft 508 kts 108°
2026-04-24 14:08 -26.69329 149.52147 41333 ft 508 kts 108°
2026-04-24 14:08 -26.70869 149.59856 41333 ft 508 kts 108°
2026-04-24 14:09 -26.72404 149.67564 41333 ft 508 kts 108°
2026-04-24 14:09 -26.73937 149.75283 41332 ft 508 kts 108°
2026-04-24 14:10 -26.75464 149.82994 41331 ft 508 kts 108°
2026-04-24 14:10 -26.76988 149.90710 41338 ft 508 kts 107°
2026-04-24 14:11 -26.78507 149.98429 41330 ft 507 kts 107°
2026-04-24 14:12 -26.80774 150.09993 41334 ft 507 kts 107°
2026-04-24 14:12 -26.82279 150.17699 41355 ft 507 kts 107°
2026-04-24 14:13 -26.83531 150.24121 41331 ft 507 kts 107°
2026-04-24 14:13 -26.85026 150.31823 41331 ft 507 kts 107°
2026-04-24 14:14 -26.86522 150.39547 41331 ft 507 kts 107°
2026-04-24 14:14 -26.88752 150.51127 41332 ft 507 kts 106°
2026-04-24 14:15 -26.90234 150.58830 41331 ft 507 kts 106°
2026-04-24 14:15 -26.91716 150.66561 41331 ft 507 kts 106°
2026-04-24 14:16 -26.93189 150.74275 41333 ft 507 kts 106°
2026-04-24 14:17 -26.95394 150.85868 41333 ft 507 kts 106°
2026-04-24 14:17 -26.97576 150.97402 41333 ft 507 kts 106°
2026-04-24 14:18 -26.99035 151.05137 41347 ft 507 kts 105°
2026-04-24 14:18 -27.00489 151.12868 41327 ft 508 kts 105°
2026-04-24 14:19 -27.01941 151.20621 41326 ft 508 kts 105°
2026-04-24 14:19 -27.03389 151.28378 41325 ft 508 kts 105°
2026-04-24 14:20 -27.04831 151.36123 41338 ft 508 kts 105°
2026-04-24 14:20 -27.06274 151.43894 41333 ft 508 kts 105°
2026-04-24 14:21 -27.07708 151.51647 41334 ft 508 kts 105°
2026-04-24 14:21 -27.09139 151.59409 41333 ft 508 kts 105°
2026-04-24 14:22 -27.10565 151.67165 41339 ft 508 kts 104°
2026-04-24 14:23 -27.12696 151.78812 41330 ft 508 kts 104°
2026-04-24 14:23 -27.14111 151.86573 41332 ft 508 kts 104°
2026-04-24 14:24 -27.15527 151.94368 41335 ft 508 kts 104°
2026-04-24 14:24 -27.16937 152.02148 41324 ft 509 kts 104°
2026-04-24 14:25 -27.18340 152.09926 41330 ft 509 kts 104°
2026-04-24 14:25 -27.19742 152.17722 41331 ft 509 kts 104°
2026-04-24 14:26 -27.21142 152.25525 41332 ft 509 kts 104°
2026-04-24 14:26 -27.22536 152.33324 41331 ft 509 kts 104°
2026-04-24 14:27 -27.23924 152.41121 41330 ft 509 kts 104°
2026-04-24 14:27 -27.25305 152.48921 41327 ft 509 kts 104°
2026-04-24 14:28 -27.26670 152.56672 41325 ft 509 kts 103°
2026-04-24 14:28 -27.28048 152.64526 41324 ft 509 kts 103°
2026-04-24 14:29 -27.29404 152.72277 41323 ft 509 kts 103°
2026-04-24 14:29 -27.30763 152.80071 41319 ft 509 kts 103°
2026-04-24 14:30 -27.31902 152.86617 41321 ft 509 kts 103°
2026-04-24 14:30 -27.33473 152.95685 41318 ft 509 kts 103°
2026-04-24 14:31 -27.34823 153.03506 41321 ft 509 kts 103°
2026-04-24 14:31 -27.35976 153.11367 41322 ft 511 kts 95°
2026-04-24 14:31 -27.35918 153.15360 41306 ft 512 kts 84°
2026-04-24 14:32 -27.35278 153.19308 41322 ft 514 kts 77°
2026-04-24 14:32 -27.33451 153.27096 41315 ft 517 kts 75°
2026-04-24 14:33 -27.31477 153.34874 41313 ft 517 kts 74°
2026-04-24 14:33 -27.29514 153.42653 41299 ft 517 kts 75°
2026-04-24 14:34 -27.27573 153.50431 41291 ft 518 kts 74°
2026-04-24 14:34 -27.25627 153.58245 41285 ft 519 kts 74°
2026-04-24 14:35 -27.23681 153.66043 41287 ft 519 kts 74°
2026-04-24 14:35 -27.21725 153.73854 41286 ft 519 kts 74°
2026-04-24 14:36 -27.19770 153.81636 41279 ft 519 kts 73°
2026-04-24 14:36 -27.17366 153.89259 41279 ft 518 kts 66°
2026-04-24 14:37 -27.14490 153.96667 41272 ft 517 kts 65°
2026-04-24 14:37 -27.11549 154.04057 41271 ft 518 kts 65°
2026-04-24 14:38 -27.08614 154.11432 41270 ft 517 kts 64°
2026-04-24 14:38 -27.05690 154.18793 41268 ft 517 kts 64°
2026-04-24 14:39 -27.02761 154.26166 41264 ft 517 kts 64°
2026-04-24 14:39 -26.99832 154.33541 41262 ft 517 kts 64°
2026-04-24 14:40 -26.96913 154.40857 41264 ft 517 kts 64°
2026-04-24 14:40 -26.93972 154.48201 41265 ft 517 kts 64°
2026-04-24 14:41 -26.91031 154.55543 41263 ft 517 kts 64°
2026-04-24 14:41 -26.88086 154.62883 41262 ft 517 kts 64°
2026-04-24 14:42 -26.85614 154.69037 41263 ft 517 kts 64°
2026-04-24 14:42 -26.82187 154.77551 41260 ft 518 kts 63°
2026-04-24 14:43 -26.79220 154.84907 41256 ft 518 kts 63°
2026-04-24 14:43 -26.76250 154.92259 41247 ft 518 kts 63°
2026-04-24 14:44 -26.73282 154.99592 41249 ft 518 kts 63°
2026-04-24 14:44 -26.70306 155.06932 41248 ft 518 kts 63°
2026-04-24 14:45 -26.67327 155.14266 41246 ft 518 kts 63°
2026-04-24 14:45 -26.64347 155.21590 41245 ft 518 kts 63°
2026-04-24 14:46 -26.61360 155.28917 41237 ft 518 kts 63°
2026-04-24 14:46 -26.58367 155.36246 41240 ft 518 kts 63°
2026-04-24 14:47 -26.55876 155.42336 41241 ft 518 kts 63°
2026-04-24 14:47 -26.52373 155.50885 41233 ft 518 kts 63°
2026-04-24 14:48 -26.49373 155.58191 41235 ft 518 kts 63°
2026-04-24 14:48 -26.46381 155.65468 41218 ft 518 kts 62°
2026-04-24 14:49 -26.43369 155.72779 41227 ft 518 kts 62°
2026-04-24 14:49 -26.40479 155.80148 41227 ft 519 kts 65°
2026-04-24 14:50 -26.37752 155.87616 41222 ft 520 kts 65°
2026-04-24 14:50 -26.35016 155.95066 41223 ft 519 kts 64°
2026-04-24 14:51 -26.32244 156.02494 41219 ft 519 kts 64°
2026-04-24 14:51 -26.29458 156.09905 41216 ft 519 kts 64°
2026-04-24 14:52 -26.26665 156.17320 41226 ft 519 kts 64°
2026-04-24 14:52 -26.23865 156.24743 41218 ft 520 kts 64°
2026-04-24 14:53 -26.21060 156.32169 41215 ft 519 kts 63°
2026-04-24 14:53 -26.18255 156.39581 41215 ft 519 kts 63°
2026-04-24 14:54 -26.15447 156.46987 41214 ft 519 kts 63°
2026-04-24 14:54 -26.12636 156.54390 41214 ft 519 kts 63°
2026-04-24 14:55 -26.10298 156.60535 41210 ft 519 kts 63°
2026-04-24 14:55 -26.07003 156.69181 41194 ft 519 kts 63°
2026-04-24 14:56 -26.04184 156.76559 41206 ft 519 kts 63°
2026-04-24 14:56 -26.01358 156.83947 41200 ft 519 kts 63°
2026-04-24 14:57 -25.98531 156.91321 41202 ft 519 kts 63°
2026-04-24 14:57 -25.95697 156.98704 41203 ft 518 kts 62°
2026-04-24 14:58 -25.92887 157.06009 41199 ft 518 kts 62°
2026-04-24 14:58 -25.90059 157.13345 41198 ft 518 kts 62°
2026-04-24 14:59 -25.87210 157.20726 41198 ft 518 kts 62°
2026-04-24 14:59 -25.84832 157.26877 41197 ft 518 kts 62°
2026-04-24 15:00 -25.81990 157.34214 41194 ft 518 kts 62°
2026-04-24 15:00 -25.79142 157.41554 41201 ft 518 kts 62°
2026-04-24 15:01 -25.76291 157.48888 41200 ft 518 kts 62°
2026-04-24 15:01 -25.73435 157.56222 41192 ft 517 kts 62°
2026-04-24 15:02 -25.70598 157.63497 41197 ft 517 kts 62°
2026-04-24 15:02 -25.67743 157.70802 41185 ft 517 kts 62°
2026-04-24 15:03 -25.64880 157.78115 41189 ft 517 kts 62°
2026-04-24 15:03 -25.62012 157.85431 41189 ft 517 kts 62°
2026-04-24 15:04 -25.59146 157.92727 41186 ft 516 kts 61°
2026-04-24 15:04 -25.56283 158.00004 41184 ft 515 kts 61°
2026-04-24 15:05 -25.53414 158.07282 41186 ft 515 kts 61°
2026-04-24 15:05 -25.50548 158.14539 41186 ft 515 kts 61°
2026-04-24 15:06 -25.47673 158.21807 41161 ft 515 kts 60°
2026-04-24 15:06 -25.44801 158.29059 41186 ft 514 kts 60°
2026-04-24 15:07 -25.41922 158.36310 41183 ft 514 kts 60°
2026-04-24 15:07 -25.39049 158.43535 41181 ft 514 kts 60°
2026-04-24 15:08 -25.36170 158.50764 41181 ft 514 kts 60°
2026-04-24 15:08 -25.33287 158.57991 41181 ft 514 kts 60°
2026-04-24 15:09 -25.30399 158.65217 41181 ft 514 kts 60°
2026-04-24 15:09 -25.27510 158.72435 41180 ft 514 kts 60°
2026-04-24 15:10 -25.24617 158.79650 41174 ft 514 kts 60°
2026-04-24 15:10 -25.21716 158.86873 41168 ft 514 kts 60°
2026-04-24 15:11 -25.18814 158.94086 41179 ft 513 kts 60°
2026-04-24 15:11 -25.15919 159.01271 41173 ft 513 kts 60°
2026-04-24 15:12 -25.13011 159.08473 41176 ft 513 kts 60°
2026-04-24 15:12 -25.08666 159.19213 41167 ft 513 kts 60°
2026-04-24 15:13 -25.05760 159.26383 41144 ft 512 kts 59°
2026-04-24 15:13 -25.02849 159.33553 41170 ft 512 kts 59°
2026-04-24 15:14 -24.99934 159.40718 41165 ft 512 kts 59°
2026-04-24 15:14 -24.97012 159.47891 41165 ft 512 kts 59°
2026-04-24 15:15 -24.94096 159.55041 41162 ft 512 kts 59°
2026-04-24 15:15 -24.91175 159.62190 41162 ft 511 kts 59°
2026-04-24 15:16 -24.88257 159.69316 41165 ft 510 kts 58°
2026-04-24 15:16 -24.85334 159.76441 41165 ft 510 kts 58°
2026-04-24 15:17 -24.82410 159.83559 41155 ft 511 kts 58°
2026-04-24 15:17 -24.79482 159.90678 41156 ft 510 kts 58°
2026-04-24 15:18 -24.76550 159.97793 41159 ft 510 kts 58°
2026-04-24 15:18 -24.73623 160.04886 41151 ft 509 kts 58°
2026-04-24 15:19 -24.70691 160.11975 41151 ft 509 kts 58°
2026-04-24 15:19 -24.67756 160.19065 41151 ft 509 kts 58°
2026-04-24 15:20 -24.64823 160.26139 41148 ft 508 kts 57°
2026-04-24 15:20 -24.61885 160.33214 41124 ft 507 kts 57°
2026-04-24 15:21 -24.58971 160.40219 41146 ft 508 kts 57°
2026-04-24 15:21 -24.56004 160.47321 41142 ft 508 kts 57°
2026-04-24 15:22 -24.53050 160.54370 41126 ft 508 kts 57°
2026-04-24 15:23 -24.48628 160.64916 41146 ft 506 kts 57°
2026-04-24 15:23 -24.44219 160.75402 41137 ft 506 kts 57°
2026-04-24 15:25 -24.37314 160.91778 41126 ft 505 kts 56°
2026-04-24 15:26 -24.30940 161.06844 41135 ft 503 kts 56°
2026-04-24 15:27 -24.23930 161.23352 41111 ft 503 kts 56°
2026-04-24 15:29 -24.15104 161.44058 41122 ft 499 kts 55°